Regional Weather Roundup
Issued by NWS Boston, MA

Home | Current Version | Previous Version | Text Only | Print | Product List | Glossary On
Versions: 1 2 3 4 5 6 7 8 9 10 11 12 13 14 15 16 17 18 19 20 21 22 23 24 25 26 27 28 29 30 31 32 33 34 35 36 37 38 39 40 41 42 43 44 45 46 47 48 49 50
000
ASUS41 KBOX 021110
RWRBOX

REGIONAL WEATHER ROUNDUP
NATIONAL WEATHER SERVICE TAUNTON MA
600 AM EST MON MAR 02 2015

NOTE:  "FAIR" INDICATES FEW OR NO CLOUDS BELOW 12,000 FEET WITH NO
SIGNIFICANT WEATHER AND/OR OBSTRUCTIONS TO VISIBILITY.  THE FOLLOWING
OBSERVATION LOCATIONS DO NOT REPORT PRESENT WEATHER...PROVINCETOWN...
SMITHFIELD...BLOCK ISLAND...KEENE...AND OXFORD.

MAZALL-021200-
EASTERN MASSACHUSETTS

CITY           SKY/WX    TMP DP  RH WIND       PRES   REMARKS
BOSTON         CLOUDY    28  23  81 W8        29.95F WCI  20
BEVERLY        CLOUDY    25  21  85 W5        29.94F WCI  19
LAWRENCE       CLOUDY    24  22  91 SW5       29.95F WCI  18
BEDFORD        CLOUDY    24  22  91 W3        29.93F
BLUE HILL        N/A     25  23  92 W10       29.90F WCI  15
NORWOOD        CLOUDY    28  24  85 W5        29.95F WCI  23
MARSHFIELD     CLOUDY    30  28  93 W5        29.97F WCI  25
PLYMOUTH       CLOUDY    28  26  92 SW6       29.95F WCI  22
TAUNTON        CLOUDY    29  26  89 SW5       29.96F WCI  24
NEW BEDFORD    CLOUDY    29  26  89 W7        29.96F WCI  22
$$

MAZALL-021200-
CAPE COD AND THE ISLANDS

CITY           SKY/WX    TMP DP  RH WIND       PRES   REMARKS
FALMOUTH       CLOUDY    30  28  93 W7        29.95F WCI  23
HYANNIS        CLOUDY    31  28  89 W8        29.93S WCI  23
CHATHAM        CLOUDY    31  29  92 VRB7      29.95F WCI  24
PROVINCETOWN   MOCLDY    30  27  86 W10       29.95F WCI  21
NANTUCKET      CLOUDY    32  30  92 W14       29.95F WCI  22
MARTHAS VNYRD  CLOUDY    30  25  81 W10       29.97S WCI  21
$$

MAZALL-021200-
CENTRAL AND WESTERN MASSACHUSETTS

CITY           SKY/WX    TMP DP  RH WIND       PRES   REMARKS
WORCESTER      MOCLDY    24  20  84 W16       29.89F WCI  11
FITCHBURG      CLOUDY    24  19  81 MISG      29.94F
ORANGE         CLOUDY    20  19  96 CALM      29.95F
SPRINGFIELD    CLOUDY    24  22  93 S2        29.96F
WESTFIELD      LGT SNOW  20  18  92 S3        29.97F FOG
NORTH ADAMS    CLOUDY    27  20  75 W10       29.98R WCI  17
PITTSFIELD     CLOUDY    25  19  78 W17G23    29.93S WCI  12
$$

RIZALL-021200-
RHODE ISLAND

CITY           SKY/WX    TMP DP  RH WIND       PRES   REMARKS
PROVIDENCE     CLOUDY    28  24  85 SW6       29.97F WCI  22
NEWPORT        CLOUDY    28  25  88 W6        29.97F WCI  22
BLOCK ISLAND   CLOUDY    28  25  86 W13       29.96F WCI  18
SMITHFIELD     MOCLDY    27  21  80 SW3       29.93F
WESTERLY       CLOUDY    28  25  88 W5        29.99F WCI  23
$$

CTZALL-021200-
CONNECTICUT

CITY           SKY/WX    TMP DP  RH WIND       PRES   REMARKS
BRADLEY INTL   MOCLDY    26  23  88 SW3       29.98F
HARTFORD       CLOUDY    27  23  85 CALM      30.01R
BRIDGEPORT     CLOUDY    27  25  92 SW8       30.01F WCI  19
DANBURY        CLOUDY    25  20  81 W5        29.99F WCI  19
GROTON         CLOUDY    27  25  92 W7        30.00S WCI  19
NEW HAVEN      CLOUDY    27  23  85 W3        30.00F
CHESTER        CLOUDY    28  27  93 CALM      29.98S
MERIDEN        CLOUDY    26  22  84 S5        30.00S WCI  20
WILLIMANTIC    CLOUDY    27  23  85 CALM      29.98F
OXFORD         CLOUDY    25  18  74 CALM      29.97F
$$

MEZ002-015-021-024-NHZ003-005-008-011-012-014-VTZ005-008-021200-
NORTHERN NEW ENGLAND

CITY           SKY/WX    TMP DP  RH WIND       PRES   REMARKS
PORTLAND ME    MOCLDY    23  19  85 W5        29.91F WCI  17
BANGOR ME      LGT SNOW  17  14  88 W3        29.87F FOG
CONCORD NH     CLOUDY    17  14  88 CALM      29.93F
MANCHESTER NH  CLOUDY    21  19  92 CALM      29.92F
NASHUA NH      CLOUDY    22  21  96 CALM      29.95F
PORTSMOUTH NH  CLOUDY    20  18  90 W6        29.91F WCI  13
JAFFREY NH     PTCLDY    15  12  88 CALM      29.90F
KEENE NH       MOCLDY    16  12  86 CALM      29.94F
BURLINGTON VT  FLURRIES  22  18  85 W5        29.98R WCI  16
MT. WASHINGTON SNOW       1   1 100 NW53        N/A  VSB 1/16WCI -30
$$

NYZ052-076-021200-
EASTERN NEW YORK

CITY           SKY/WX    TMP DP  RH WIND       PRES   REMARKS
ALBANY         LGT SNOW  23  19  85 CALM      30.04R FOG
NEW YORK CITY  CLOUDY    31  25  78 CALM      30.02S
$$

ANZALL-021200-
MARINE OBSERVATIONS

STATION/POSITION TIME  TEMP    WIND        PRES    VSBY  WAVE
                       AIR SEA DIR/SP/G                  HT/PER
                 (UTC) (F)     (DEG/KT/KT) (MB)    (MI)  (FT/S)
BOSTON BUOY      1050   29 36  290/ 12/ 14 1014.3F         2/ 3
BUZZARDS BAY     1000          260/ 17/ 19 1016.0F
NANTUCKET SOUND  1050   31 31  260/ 14/ 16 1014.6F         0
MASS BAY-STELLWA 1004   28 35  280/ 12/ 16   N/A    1 7/8  2/ 3
ISLE OF SHOALS   1100   24     280/ 11/ 11 1012.8F
S OF BLOCK IS    1008      37                N/A           3/ 7
$$

......................KEY.........................
  SKY/WX - SKY CONDITION/PRESENT WEATHER
  TMP    - TEMPERATURE IN FAHRENHEIT
  DWPT   - DEWPOINT IN FAHRENHEIT
  RH     - RELATIVE HUMIDITY IN PERCENT
  WIND   - DIRECTION AND SPEED IN MPH
  PRES   - MEAN SEA LEVEL PRESSURE IN INCHES OF HG
  WCI    - WIND CHILL INDEX
  VSB    - VISIBILITY IN MILES
  HX     - HEAT INDEX
  TC     - TEMPERATURE IN CELSIUS
  VRB    - VARIABLE WIND DIRECTION
  N/A    - NOT AVAILABLE


USA.gov is the U.S. government's official web portal to all federal, state and local government web resources and services.